• In Netherlands
  • List of Countries
  • For 7 days
  • Water Temperature
  • Satellite Maps
  • Weather Map
  • Weather Widgets
  • user-avatar
    Login

    Hourly Weather Etchmiadzin

    Today, 1 March, Wednesday

    Time Temperature Precipitation Wind Pressure Humidity
    00:00 -3°C° 0 mm 1 mps 688 mmHg 94%
    01:00 -3°C° 0 mm 1 mps 688 mmHg 93%
    02:00 -3°C° 0 mm 1 mps 688 mmHg 93%
    03:00 -6°C° 0 mm 1 mps 687 mmHg 95%
    04:00 -4°C° 0 mm 1 mps 687 mmHg 95%
    05:00 -4°C° 0 mm 1 mps 688 mmHg 94%
    06:00 -4°C° 0 mm 1 mps 688 mmHg 94%
    07:00 -1°C° 0 mm 1 mps 688 mmHg 93%
    08:00 +3°C° 0 mm 1 mps 689 mmHg 93%
    09:00 +7°C° 0 mm 1 mps 690 mmHg 92%
    10:00 +7°C° 0 mm 1 mps 689 mmHg 92%
    11:00 +8°C° 0 mm 1 mps 689 mmHg 93%
    12:00 +9°C° 0 mm 1 mps 689 mmHg 93%
    13:00 +9°C° 0 mm 1 mps 688 mmHg 93%
    14:00 +9°C° 0 mm 1 mps 688 mmHg 93%
    15:00 +9°C° 0 mm 1 mps 688 mmHg 94%
    16:00 +6°C° 0 mm 1 mps 687 mmHg 94%
    17:00 +4°C° 0 mm 1 mps 687 mmHg 94%
    18:00 +2°C° 0 mm 1 mps 686 mmHg 95%
    19:00 +1°C° 0 mm 1 mps 686 mmHg 94%
    20:00 +1°C° 0 mm 1 mps 686 mmHg 92%
    21:00 0°C° 0 mm 1 mps 686 mmHg 91%
    22:00 0°C° 0 mm 1 mps 686 mmHg 91%
    23:00 -1°C° 0 mm 1 mps 686 mmHg 90%

    Tomorrow, 2 March, Thursday

    Time Temperature Precipitation Wind Pressure Humidity
    00:00 -1°C° 0 mm 1 mps 685 mmHg 90%
    01:00 -1°C° 0 mm 1 mps 685 mmHg 90%
    02:00 0°C° 0 mm 1 mps 685 mmHg 89%
    03:00 0°C° 0 mm 1 mps 685 mmHg 89%
    04:00 0°C° 0 mm 1 mps 685 mmHg 88%
    05:00 +1°C° 0 mm 1 mps 685 mmHg 88%
    06:00 +1°C° 0 mm 1 mps 685 mmHg 88%
    07:00 +3°C° 0 mm 1 mps 685 mmHg 88%
    08:00 +4°C° 0 mm 0 mps 686 mmHg 87%
    09:00 +7°C° 0 mm 0 mps 686 mmHg 87%
    10:00 +8°C° 0 mm 0 mps 685 mmHg 86%
    11:00 +8°C° 0 mm 0 mps 685 mmHg 86%
    12:00 +10°C° 0 mm 1 mps 685 mmHg 85%
    13:00 +10°C° 0 mm 1 mps 684 mmHg 86%
    14:00 +10°C° 0 mm 1 mps 684 mmHg 87%
    15:00 +10°C° 0 mm 1 mps 684 mmHg 88%
    16:00 +8°C° 0 mm 1 mps 683 mmHg 88%
    17:00 +6°C° 0 mm 1 mps 683 mmHg 89%
    18:00 +4°C° 0 mm 1 mps 683 mmHg 90%
    19:00 +4°C° 0 mm 1 mps 683 mmHg 89%
    20:00 +4°C° 0 mm 1 mps 683 mmHg 89%
    21:00 +3°C° 0 mm 1 mps 684 mmHg 88%
    22:00 +3°C° 0.1 mm 1 mps 684 mmHg 88%
    23:00 +2°C° 0.1 mm 0 mps 684 mmHg 87%

    Day after tomorrow, 3 March, Friday

    Time Temperature Precipitation Wind Pressure Humidity
    00:00 +2°C° 0.1 mm 0 mps 684 mmHg 87%
    01:00 +2°C° 0.1 mm 0 mps 683 mmHg 88%
    02:00 +1°C° 0.1 mm 0 mps 683 mmHg 88%
    03:00 +1°C° 0.1 mm 0 mps 683 mmHg 89%
    04:00 +1°C° 0.1 mm 0 mps 683 mmHg 90%
    05:00 0°C° 0.1 mm 0 mps 683 mmHg 90%
    06:00 0°C° 0.1 mm 0 mps 683 mmHg 91%
    07:00 +2°C° 0 mm 0 mps 683 mmHg 88%
    08:00 +4°C° 0 mm 0 mps 684 mmHg 84%
    09:00 +6°C° 0 mm 0 mps 685 mmHg 81%
    10:00 +8°C° 0.1 mm 1 mps 684 mmHg 81%
    11:00 +9°C° 0.1 mm 1 mps 684 mmHg 81%
    12:00 +9°C° 0.1 mm 1 mps 684 mmHg 81%
    13:00 +9°C° 0.1 mm 1 mps 684 mmHg 81%
    14:00 +9°C° 0.1 mm 1 mps 683 mmHg 82%
    15:00 +9°C° 0.1 mm 1 mps 683 mmHg 82%
    16:00 +8°C° 0.1 mm 1 mps 683 mmHg 85%
    17:00 +6°C° 0.1 mm 1 mps 683 mmHg 88%
    18:00 +4°C° 0.1 mm 0 mps 682 mmHg 92%
    19:00 +3°C° 0.1 mm 0 mps 683 mmHg 92%
    20:00 +3°C° 0.1 mm 0 mps 683 mmHg 92%
    21:00 +2°C° 0.1 mm 0 mps 683 mmHg 92%
    22:00 +2°C° 0.1 mm 0 mps 683 mmHg 92%
    23:00 +2°C° 0.1 mm 0 mps 683 mmHg 92%

    4 March, Saturday

    Time Temperature Precipitation Wind Pressure Humidity
    00:00 +1°C° 0.1 mm 0 mps 683 mmHg 92%
    01:00 +1°C° 0 mm 0 mps 683 mmHg 92%
    02:00 0°C° 0 mm 0 mps 682 mmHg 91%
    03:00 0°C° 0 mm 0 mps 682 mmHg 91%
    04:00 0°C° 0 mm 0 mps 682 mmHg 91%
    05:00 0°C° 0 mm 0 mps 682 mmHg 91%
    06:00 0°C° 0 mm 0 mps 683 mmHg 91%
    07:00 +2°C° 0 mm 0 mps 683 mmHg 86%
    08:00 +4°C° 0 mm 0 mps 684 mmHg 82%
    09:00 +7°C° 0 mm 0 mps 685 mmHg 77%
    10:00 +8°C° 0.1 mm 0 mps 685 mmHg 77%
    11:00 +9°C° 0.1 mm 1 mps 685 mmHg 77%
    12:00 +10°C° 0.1 mm 1 mps 685 mmHg 76%
    13:00 +10°C° 0.1 mm 1 mps 684 mmHg 77%
    14:00 +10°C° 0.1 mm 1 mps 684 mmHg 78%
    15:00 +10°C° 0.1 mm 1 mps 684 mmHg 79%
    16:00 +9°C° 0.1 mm 1 mps 684 mmHg 82%
    17:00 +8°C° 0.1 mm 1 mps 684 mmHg 85%
    18:00 +7°C° 0.1 mm 1 mps 684 mmHg 88%
    19:00 +6°C° 0.3 mm 1 mps 685 mmHg 88%
    20:00 +6°C° 0.3 mm 1 mps 685 mmHg 87%
    21:00 +6°C° 0.3 mm 1 mps 686 mmHg 87%
    22:00 +6°C° 0.3 mm 1 mps 686 mmHg 88%
    23:00 +5°C° 0.3 mm 1 mps 686 mmHg 88%

    5 March, Sunday

    Time Temperature Precipitation Wind Pressure Humidity
    00:00 +5°C° 0.3 mm 1 mps 686 mmHg 88%
    01:00 +4°C° 0.4 mm 2 mps 686 mmHg 88%
    02:00 +3°C° 0.4 mm 2 mps 687 mmHg 89%
    03:00 +3°C° 0.4 mm 2 mps 687 mmHg 89%
    04:00 +3°C° 0.4 mm 2 mps 687 mmHg 88%
    05:00 +3°C° 0.4 mm 2 mps 687 mmHg 88%
    06:00 +2°C° 0.4 mm 2 mps 688 mmHg 88%
    07:00 +3°C° 0.3 mm 2 mps 688 mmHg 84%
    08:00 +4°C° 0.3 mm 2 mps 689 mmHg 81%
    09:00 +6°C° 0.3 mm 1 mps 689 mmHg 78%
    10:00 +6°C° 0.2 mm 1 mps 689 mmHg 76%
    11:00 +7°C° 0.2 mm 1 mps 689 mmHg 75%
    12:00 +8°C° 0.2 mm 1 mps 689 mmHg 74%
    13:00 +8°C° 0.2 mm 1 mps 689 mmHg 73%
    14:00 +8°C° 0.2 mm 1 mps 689 mmHg 73%
    15:00 +8°C° 0.2 mm 1 mps 689 mmHg 73%
    16:00 +7°C° 0.2 mm 1 mps 689 mmHg 76%
    17:00 +4°C° 0.2 mm 0 mps 689 mmHg 79%
    18:00 +3°C° 0.2 mm 0 mps 689 mmHg 83%
    19:00 +2°C° 0.1 mm 0 mps 689 mmHg 83%
    20:00 +2°C° 0.1 mm 0 mps 689 mmHg 82%
    21:00 +2°C° 0.1 mm 1 mps 690 mmHg 82%
    22:00 +1°C° 0 mm 0 mps 690 mmHg 83%
    23:00 0°C° 0 mm 0 mps 690 mmHg 83%

    6 March, Monday

    Time Temperature Precipitation Wind Pressure Humidity
    00:00 0°C° 0 mm 0 mps 690 mmHg 83%
    01:00 -1°C° 0 mm 0 mps 690 mmHg 83%
    02:00 -1°C° 0 mm 0 mps 689 mmHg 84%
    03:00 -2°C° 0 mm 0 mps 689 mmHg 84%
    04:00 -2°C° 0 mm 0 mps 689 mmHg 84%
    05:00 -2°C° 0 mm 0 mps 689 mmHg 85%
    06:00 -3°C° 0 mm 0 mps 689 mmHg 85%
    07:00 0°C° 0 mm 0 mps 690 mmHg 81%
    08:00 +3°C° 0 mm 0 mps 690 mmHg 77%
    09:00 +7°C° 0 mm 1 mps 691 mmHg 72%
    10:00 +8°C° 0 mm 1 mps 691 mmHg 73%
    11:00 +9°C° 0 mm 1 mps 690 mmHg 73%
    12:00 +9°C° 0 mm 1 mps 690 mmHg 73%
    13:00 +10°C° 0 mm 1 mps 689 mmHg 73%
    14:00 +10°C° 0 mm 1 mps 689 mmHg 73%
    15:00 +10°C° 0 mm 1 mps 688 mmHg 73%
    16:00 +8°C° 0 mm 1 mps 688 mmHg 78%
    17:00 +6°C° 0 mm 1 mps 688 mmHg 82%
    18:00 +4°C° 0 mm 1 mps 687 mmHg 86%
    19:00 +3°C° 0 mm 1 mps 687 mmHg 87%
    20:00 +1°C° 0 mm 0 mps 687 mmHg 89%
    21:00 0°C° 0 mm 0 mps 687 mmHg 90%
    22:00 0°C° 0 mm 0 mps 687 mmHg 90%
    23:00 -1°C° 0 mm 0 mps 687 mmHg 91%
    Show more